Location: Alston School (historical)
(35.5076°N, 89.8251°W)
Time: 16:11:07
(UTC+00:00)

NOSS 2-3 (C) - Pass Details

Date: 09 December 2025
Orbit: 458 x 1718 km, 63.3° (Epoch: 20 January)

Event Time Altitude Azimuth Distance (km) Brightness Sun altitude
Rises 23:26:24 0° 199° (SSW) 2,664 7.5 -8.2°
Reaches altitude 10° 23:28:43 10° 193° (SSW) 1,685 6.3 -8.6°
Maximum altitude 23:32:12 47° 119° (ESE) 620 3.3 -9.3°
Enters shadow 23:35:14 12° 45° (NE) 1,490 5.0 -9.9°
